Weather History for Rochester, NH

Change the Weather History Date:

Tuesday, July 2, 2013

  Actual Average (KSFM) Record (KSFM)
Temperature  
Mean Temperature 67 °F -  
Max Temperature 75 °F 78 °F 91 °F (2002)
Min Temperature 59 °F 56 °F 46 °F (2007)
Cooling Degree Days 2    
Growing Degree Days 17 (Base 50)    
Moisture  
Dew Point 63 °F    
Average Humidity 94    
Maximum Humidity 100    
Minimum Humidity 88    
Precipitation  
Precipitation 0.08 in - - ()
Sea Level Pressure  
Sea Level Pressure 30.16 in    
Wind  
Wind Speed 3 mph (ENE)    
Max Wind Speed 9 mph    
Max Gust Speed -    
Visibility 4 miles    
Events Fog , Rain    
Averages and records for this station are not official NWS values.
T = Trace of Precipitation, MM = Missing Value Source: NWS Daily Summary

Daily Weather History Graph

Daily Weather History Graph

Search for Another Location

Airport:

Trip Planner

Search our weather history database for the weather conditions in past years. The results will help you decide how hot, cold, wet, or windy it might be!

Date:

Astronomy

Jul. 02, 2013 Rise Set
Actual Time 5:08 AM EDT 8:27 PM EDT
Civil Twilight 4:32 AM EDT 9:02 PM EDT
Nautical Twilight 3:46 AM EDT 9:48 PM EDT
Astronomical Twilight 2:49 AM EDT 10:45 PM EDT
Moon 1:13 AM EDT (7/2) 3:34 PM EDT (7/2)
Length of Visible Light 16h 29m
Length of Day
15h 19m
Waning Crescent, 26% of the Moon is Illuminated
Jul 2
Waning Crescent
Jul 8
New
Jul 15
First Quarter
Jul 22
Full
Jul 29
Last Quarter

Hourly Weather History & Observations

Time (EDT) Temp. Dew Point Humidity Pressure Visibility Wind Dir Wind Speed Gust Speed Precip Events Conditions
12:32 AM 71.6 °F 69.8 °F 94% 30.08 in 10.0 mi Calm Calm - N/A   Mostly Cloudy
12:51 AM 71.1 °F 70.0 °F 96% 30.06 in 9.0 mi Calm Calm - N/A   Overcast
1:05 AM 71.6 °F 69.8 °F 94% 30.07 in 7.0 mi Calm Calm - N/A   Overcast
1:29 AM 71.6 °F 69.8 °F 94% 30.07 in 7.0 mi SSE 3.5 mph - N/A   Overcast
1:51 AM 71.1 °F 70.0 °F 96% 30.06 in 6.0 mi South 3.5 mph - N/A   Overcast
2:51 AM 71.1 °F 70.0 °F 96% 30.07 in 5.0 mi South 3.5 mph - N/A   Overcast
3:51 AM 71.1 °F 70.0 °F 96% 30.08 in 7.0 mi Calm Calm - N/A   Overcast
4:51 AM 71.1 °F 70.0 °F 96% 30.09 in 5.0 mi Calm Calm - N/A   Overcast
5:51 AM 72.0 °F 70.0 °F 93% 30.09 in 4.0 mi Variable 3.5 mph - N/A   Overcast
6:51 AM 72.0 °F 70.0 °F 93% 30.11 in 4.0 mi Calm Calm - 0.00 in Rain Light Rain
7:51 AM 73.0 °F 71.1 °F 93% 30.13 in 7.0 mi Calm Calm - 0.00 in   Overcast
8:48 AM 73.4 °F 71.6 °F 94% 30.15 in 10.0 mi SSE 3.5 mph - N/A   Overcast
8:51 AM 75.0 °F 72.0 °F 90% 30.14 in 10.0 mi Calm Calm - N/A   Overcast
10:41 AM 62.6 °F 60.8 °F 94% 30.17 in 6.0 mi NNE 6.9 mph - 0.03 in Rain Light Rain
10:51 AM 62.1 °F 60.1 °F 93% 30.16 in 4.0 mi NNE 8.1 mph - 0.04 in Rain Light Rain
11:10 AM 62.6 °F 59.0 °F 88% 30.18 in 5.0 mi North 5.8 mph - 0.00 in Rain Light Rain
11:33 AM 62.6 °F 59.0 °F 88% 30.18 in 5.0 mi North 8.1 mph - 0.01 in Rain Light Rain
11:51 AM 62.1 °F 59.0 °F 90% 30.17 in 7.0 mi NNE 9.2 mph - 0.01 in   Overcast
12:18 PM 62.6 °F 60.8 °F 94% 30.18 in 2.5 mi NNE 6.9 mph - 0.01 in Rain Light Rain
12:25 PM 62.6 °F 60.8 °F 94% 30.19 in 5.0 mi NNE 4.6 mph - 0.01 in Rain Light Rain
12:51 PM 62.1 °F 60.1 °F 93% 30.18 in 8.0 mi NE 5.8 mph - 0.01 in   Overcast
1:51 PM 62.1 °F 60.1 °F 93% 30.18 in 5.0 mi NNE 6.9 mph - 0.01 in Rain Rain
2:25 PM 62.6 °F 60.8 °F 94% 30.18 in 8.0 mi NE 6.9 mph - 0.01 in   Overcast
2:51 PM 63.0 °F 61.0 °F 93% 30.18 in 8.0 mi Variable 5.8 mph - 0.01 in   Overcast
3:24 PM 62.6 °F 60.8 °F 94% 30.18 in 8.0 mi East 5.8 mph - N/A   Overcast
3:51 PM 63.0 °F 61.0 °F 93% 30.17 in 6.0 mi NE 8.1 mph - N/A   Overcast
4:49 PM 62.6 °F 60.8 °F 94% 30.18 in 2.5 mi NNE 6.9 mph - N/A   Overcast
4:51 PM 63.0 °F 60.1 °F 90% 30.17 in 2.5 mi NNE 6.9 mph - N/A   Overcast
5:51 PM 62.1 °F 60.1 °F 93% 30.17 in 2.5 mi NNE 5.8 mph - N/A   Overcast
6:01 PM 62.6 °F 60.8 °F 94% 30.19 in 3.0 mi NE 4.6 mph - N/A   Overcast
6:27 PM 62.6 °F 60.8 °F 94% 30.18 in 2.0 mi NE 4.6 mph - N/A   Overcast
6:51 PM 62.1 °F 60.1 °F 93% 30.18 in 1.8 mi East 4.6 mph - N/A   Overcast
7:40 PM 60.8 °F 60.8 °F 100% 30.19 in 0.8 mi East 4.6 mph - N/A   Overcast
7:49 PM 60.8 °F 60.8 °F 100% 30.19 in 1.0 mi ENE 3.5 mph - N/A   Overcast
7:51 PM 61.0 °F 60.1 °F 97% 30.19 in 1.2 mi Calm Calm - N/A   Overcast
8:51 PM 61.0 °F 60.1 °F 97% 30.20 in 1.0 mi Calm Calm - N/A   Overcast
9:28 PM 60.8 °F 59.0 °F 94% 30.21 in 0.8 mi ESE 3.5 mph - N/A   Overcast
9:35 PM 60.8 °F 59.0 °F 94% 30.21 in 1.0 mi ESE 3.5 mph - N/A   Overcast
9:47 PM 60.8 °F 59.0 °F 94% 30.22 in 0.8 mi ESE 4.6 mph - N/A   Overcast
9:51 PM 60.1 °F 59.0 °F 96% 30.21 in 0.8 mi ESE 4.6 mph - N/A   Mist
10:51 PM 59.0 °F 57.9 °F 96% 30.20 in 0.5 mi ESE 3.5 mph - N/A Fog Fog
11:38 PM 59.0 °F 57.2 °F 94% 30.22 in 1.8 mi Calm Calm - N/A   Overcast
11:46 PM 59.0 °F 57.2 °F 94% 30.22 in 2.0 mi Calm Calm - N/A   Overcast
11:51 PM 59.0 °F 57.0 °F 93% 30.21 in 1.8 mi Calm Calm - N/A   Overcast